This is the latest recevied weather packets stored in our database for station/object W4NDF-13. If no packets are shown the sender has not sent any weather packets the latest 10 day(s).
| Time | Temp. | Humidity | Pressure | Rain* | Wind** | Luminosity | Snow |
|---|---|---|---|---|---|---|---|
| 1777946545 | 20.56° C | 63% | 1015.4 hPa | 0 mm | - | 0 W/m² | - |
| 1777946243 | 21.11° C | 62% | 1015.2 hPa | 0 mm | - | 0 W/m² | - |
| 1777945940 | 21.11° C | 62% | 1015.3 hPa | 0 mm | - | 0 W/m² | - |
| 1777945637 | 21.11° C | 62% | 1015.2 hPa | 0 mm | - | 0 W/m² | - |
| 1777945334 | 21.11° C | 61% | 1015 hPa | 0 mm | - | 0 W/m² | - |
| 1777945031 | 21.11° C | 61% | 1014.8 hPa | 0 mm | - | 0 W/m² | - |
| 1777944728 | 21.11° C | 61% | 1015 hPa | 0 mm | - | 0 W/m² | - |
| 1777944426 | 21.11° C | 61% | 1014.9 hPa | 0 mm | - | 0 W/m² | - |
| 1777944123 | 21.11° C | 60% | 1015.1 hPa | 0 mm | - | 0 W/m² | - |
| 1777943818 | 21.67° C | 59% | 1014.8 hPa | 0 mm | - | 0 W/m² | - |
| 1777943516 | 21.67° C | 59% | 1014.9 hPa | 0 mm | - | 0 W/m² | - |
| 1777943211 | 21.67° C | 58% | 1014.7 hPa | 0 mm | - | 0 W/m² | - |
| 1777942908 | 21.67° C | 58% | 1014.8 hPa | 0 mm | - | 0 W/m² | - |
| 1777942604 | 21.67° C | 57% | 1014.8 hPa | 0 mm | - | 0 W/m² | - |
| 1777942301 | 21.67° C | 57% | 1014.9 hPa | 0 mm | - | 1 W/m² | - |
| 1777941998 | 21.67° C | 57% | 1015 hPa | 0 mm | - | 1 W/m² | - |
| 1777941695 | 22.22° C | 57% | 1015.1 hPa | 0 mm | - | 2 W/m² | - |
| 1777941392 | 22.22° C | 56% | 1015.1 hPa | 0 mm | - | 4 W/m² | - |
| 1777941090 | 22.22° C | 56% | 1015 hPa | 0 mm | - | 7 W/m² | - |
| 1777940786 | 22.22° C | 56% | 1015.5 hPa | 0 mm | - | 11 W/m² | - |
| 1777940484 | 22.22° C | 55% | 1015 hPa | 0 mm | - | 16 W/m² | - |
| 1777940181 | 22.22° C | 55% | 1015.2 hPa | 0 mm | - | 22 W/m² | - |
| 1777939879 | 22.22° C | 54% | 1015.3 hPa | 0 mm | - | 25 W/m² | - |
| 1777939575 | 22.22° C | 54% | 1015.5 hPa | 0 mm | - | 27 W/m² | - |
| 1777939273 | 22.78° C | 54% | 1015.4 hPa | 0 mm | - | 27 W/m² | - |
* Rain latest hour (hover to see other rain measurements)
** Current wind speed in m/s (hover to see current wind gust speed)